Theta_e
342 342 341 342 343 343 343 343 341 343 342 340 338 339 341 339 332 336 338 334 340 340 340 338 337 337 339 341 342 344 345 345 345
342 342 342 342 342 343 342 342 341 340 342 340 338 338 338 328 327 329 331 332 338 338 337 334 333 334 334 335 338 339 340 341 343
342 342 342 341 341 342 341 341 340 338 341 341 338 337 335 328 322 329 332 339 338 338 337 335 332 332 333 333 333 334 336 337 338
344 341 342 342 341 340 339 339 339 337 338 339 336 336 334 325 322 331 333 341 337 336 336 335 332 331 331 332 332 332 333 333 334
345 343 342 341 341 339 338 337 337 336 333 332 333 331 330 321 321 321 325 336 338 335 335 335 331 330 330 330 331 331 331 331 332
337 339 340 341 341 338 337 335 334 335 334 332 330 328 320 317 318 319 331 329 333 338 334 333 330 329 328 328 330 330 330 330 330
338 335 338 341 341 339 337 336 335 332 324 324 328 320 320 317 316 322 333 331 333 338 338 333 330 328 327 327 328 328 328 328 328
331 331 332 333 335 334 334 332 329 324 320 319 317 317 315 315 315 325 332 329 333 338 339 334 330 327 327 326 326 325 324 325 325
323 328 328 329 331 330 330 329 328 327 325 321 317 316 316 316 317 321 329 331 330 339 339 338 333 330 327 327 325 325 323 323 324
329 325 324 325 326 325 326 327 325 325 325 325 323 321 320 319 319 318 326 328 330 333 341 341 338 334 331 328 326 325 323 322 322
331 328 325 322 323 324 324 325 328 328 328 328 327 325 325 325 325 322 320 327 328 331 333 341 342 339 336 333 330 329 327 325 323
330 329 328 328 325 325 325 327 328 328 330 328 329 329 327 327 327 325 323 323 326 329 331 333 337 338 339 337 335 332 330 328 326
331 330 329 331 330 329 328 328 327 327 327 327 327 327 328 328 328 329 327 325 324 326 331 333 335 336 337 338 337 336 333 330 328
333 333 332 332 332 331 331 330 329 327 327 329 329 330 330 329 331 328 329 329 329 326 328 328 330 334 335 336 337 336 335 333 331
333 333 333 333 334 332 332 331 331 330 330 331 329 330 329 329 329 329 329 326 326 328 324 323 323 328 333 333 334 335 335 334 333
334 333 335 334 333 332 332 330 329 329 330 329 325 326 328 327 328 327 325 323 323 322 322 321 320 321 329 332 332 333 334 334 333
335 334 334 334 334 333 332 332 329 329 330 325 323 318 319 322 323 323 321 319 318 319 318 317 316 316 316 320 329 330 332 332 333
337 336 335 335 335 333 333 331 329 327 328 328 323 316 312 314 317 318 318 317 316 314 314 314 314 315 315 316 316 318 319 322 325
319 321 327 333 332 330 327 328 327 327 324 325 326 324 322 316 312 315 316 316 313 313 311 311 313 313 313 312 314 314 315 319 321
317 316 316 316 317 318 319 319 320 320 318 319 319 317 320 320 316 311 311 316 316 314 313 312 310 310 307 305 309 312 315 318 320
Wind_Speed
15 14 13 13 13 13 13 12 12 11 10 9 9 10 13 7 7 8 12 6 11 12 13 13 12 13 13 12 13 15 15 15 14
14 13 12 12 12 12 11 10 10 9 8 8 8 10 12 6 7 7 7 6 11 11 12 12 12 13 12 12 11 11 12 14 13
13 11 11 11 11 10 9 8 8 9 7 7 6 7 9 6 5 7 6 7 9 10 11 11 12 12 12 12 11 10 10 11 11
13 10 9 9 9 9 8 7 6 7 7 6 5 7 9 5 2 8 4 5 5 7 8 9 10 11 12 11 11 12 12 11 10
12 9 7 8 7 7 6 5 4 5 5 3 1 5 9 4 2 4 4 4 2 3 5 7 7 9 10 10 10 11 11 11 11
8 8 8 7 6 5 5 4 2 2 3 4 3 6 4 1 2 3 7 3 1 2 3 3 5 7 8 8 9 9 10 10 10
9 7 9 7 6 5 4 4 4 5 3 3 5 3 4 1 1 3 7 3 1 3 4 3 4 5 5 6 7 7 8 8 8
4 4 3 4 6 4 5 5 4 5 2 3 3 3 2 2 1 5 7 4 1 3 6 5 4 3 3 4 5 6 6 6 6
4 4 5 5 4 6 5 4 5 5 5 5 4 3 3 2 2 4 8 6 4 4 7 7 6 5 3 3 3 4 4 4 4
2 3 4 3 4 3 3 3 2 4 5 4 4 5 4 4 2 2 9 9 7 7 9 11 9 7 6 3 3 2 2 1 1
4 2 3 3 2 2 3 3 4 3 3 4 4 5 5 5 4 3 4 9 8 8 10 10 10 11 10 9 8 8 7 5 3
4 3 4 4 3 4 3 2 2 2 3 4 5 5 5 4 4 5 4 5 9 10 11 11 12 12 13 11 11 10 10 10 10
4 3 3 3 3 3 2 3 3 3 4 3 4 4 4 6 6 5 4 5 4 8 11 11 13 14 14 14 13 14 13 11 10
5 3 4 4 3 2 3 3 3 3 3 4 3 4 4 3 3 5 6 6 5 4 8 11 10 10 13 15 15 14 13 14 14
5 4 4 3 4 3 2 3 2 2 3 4 4 4 5 4 4 5 4 3 3 4 3 3 4 9 11 14 15 16 15 12 15
6 3 3 3 2 3 3 3 4 3 3 3 3 4 6 6 5 4 3 4 1 2 2 1 2 2 10 10 11 12 15 17 12
2 4 3 1 1 3 3 2 2 1 0 1 2 3 3 4 4 3 2 1 3 1 2 2 3 2 2 2 5 7 9 12 14
4 4 2 2 2 2 2 1 1 2 2 4 3 3 3 2 3 1 1 0 2 3 4 5 5 5 4 5 6 10 9 9 10
5 4 2 1 1 3 3 2 3 3 4 2 3 5 3 3 3 2 1 2 3 2 2 2 2 4 4 10 11 11 10 9 9
3 2 2 1 1 2 2 2 2 2 2 2 2 2 3 3 5 5 4 2 2 3 2 2 4 6 5 5 7 10 10 11 11
Wind_Direction
97 96 97 100 98 95 90 85 79 78 87 75 42 20 1 32 74 80 68 63 60 61 59 53 50 47 43 41 36 43 49 53 52
106 105 105 106 106 102 95 87 79 74 87 74 40 12 4 17 47 80 80 72 71 69 60 53 52 52 49 44 43 40 39 43 48
111 111 111 109 108 103 96 89 80 70 77 74 39 8 358 4 55 97 87 88 72 66 61 55 52 52 52 52 48 42 39 40 38
120 121 121 115 109 107 104 96 85 77 74 70 32 346 339 357 43 106 95 67 86 70 60 55 52 55 54 53 51 50 45 39 38
128 127 123 124 119 114 107 104 98 95 98 91 6 307 310 286 109 98 110 84 56 101 62 55 57 60 58 54 54 52 51 48 43
149 134 135 131 131 128 126 124 133 176 186 181 232 278 283 187 73 116 112 111 231 187 146 80 66 64 64 62 61 56 53 48 44
126 130 143 150 156 155 171 182 210 236 219 215 228 253 268 28 130 134 131 112 268 249 204 137 98 81 79 72 69 62 54 48 45
139 142 155 171 190 193 191 205 222 237 222 164 229 216 22 298 274 154 149 148 263 278 175 177 156 128 105 86 80 66 57 54 52
190 163 180 185 182 208 200 197 211 190 207 225 241 265 217 242 257 166 162 170 205 234 201 201 193 180 158 128 99 88 67 62 56
227 191 160 189 185 207 204 222 255 208 221 216 212 231 249 254 248 160 179 192 196 222 239 219 210 202 188 165 164 149 130 95 91
190 191 176 186 178 213 215 227 225 245 238 240 243 233 225 227 231 221 189 200 210 217 235 245 235 220 213 211 203 200 194 195 216
187 204 184 195 195 206 234 258 316 326 308 285 260 251 240 232 231 221 208 200 215 217 226 236 243 244 235 236 228 221 214 198 189
196 188 222 211 192 180 209 232 244 235 229 247 262 260 237 226 233 237 221 214 203 216 219 228 238 245 251 248 244 230 216 220 217
182 203 208 203 206 203 200 235 212 243 263 265 286 297 282 270 276 259 251 233 213 184 200 219 233 244 251 259 261 257 240 221 221
178 201 216 208 215 229 249 246 272 238 270 281 281 276 283 264 249 255 257 261 270 196 184 193 225 235 245 251 255 264 266 245 233
175 193 249 235 233 255 257 229 236 264 248 278 288 273 265 261 246 231 239 295 228 134 127 235 217 259 241 251 259 266 271 274 254
167 178 229 328 260 268 275 305 301 284 40 229 344 275 311 275 260 199 123 51 37 35 112 36 13 1 17 11 290 311 315 306 296
88 83 87 47 41 309 315 5 316 280 288 216 191 289 243 1 342 9 89 210 26 58 69 47 33 57 49 44 38 28 14 345 322
42 31 27 199 206 245 257 253 236 227 252 271 232 243 208 254 297 336 307 92 102 37 84 106 81 78 65 68 37 30 6 3 345
102 60 37 6 302 281 262 293 263 237 259 273 299 279 249 220 233 272 284 321 143 148 147 123 79 64 64 53 37 27 22 13 2